(°C)
17°
17°
16°
15°
14°
14°
13°
(°C)
17°
17°
16°
15°
14°
14°
13°
WSW
WSW
WSW
W
WNW
NW
NW
(km/h)
3-8
4-7
4-6
4-6
3-5
3-7
3-6
(mm)
0
0
1.1
1.3
1.1
0.9
0
(%)
47
66
83
82
83
81
62

Wysokość słońca

/ 32.2°
sun-icon
UV 3
07:47
18:57
Przybywający Księżyc garbaty (144°)
17:51
04:16

METAR dla Janina (LGIO)

Czas Warunki Temperatura/
Punkt rosy
Wiatr Widzialność Pogoda Chmury Ciśn. atm. Zmień Surowy
VFR 17°C / 11°C variable 3kt >10km - Few Clouds 1500ft
Broken Clouds 3500ft
Broken Clouds 7000ft
1018 - LGIO 171220Z VRB03KT 9999 FEW015 BKN035 BKN070 17/11 Q1018
17°C / 11°C variable 2kt - 1018 - LGIO 171150Z AUTO VRB02KT //// // ////// 17/11 Q1018 RE//
17°C / 11°C variable 2kt - 1018 - LGIO 171120Z AUTO VRB02KT //// // ////// 17/11 Q1018 RE//
17°C / 11°C variable 2kt - 1018 - LGIO 171050Z AUTO VRB02KT //// // ////// 17/11 Q1018 RE//
17°C / 11°C variable 0kt - 1019 - LGIO 171020Z AUTO 00000KT //// // ////// 17/11 Q1019 RE//
16°C / 11°C variable 2kt - 1019 - LGIO 170950Z AUTO VRB02KT //// // ////// 16/11 Q1019 RE//
16°C / 11°C variable 2kt - 1019 - LGIO 170920Z AUTO VRB02KT //// // ////// 16/11 Q1019 RE//
16°C / 12°C variable 1kt - 1019 - LGIO 170850Z AUTO VRB01KT //// // ////// 16/12 Q1019 RE//
15°C / 12°C variable 2kt - 1019 - LGIO 170820Z AUTO VRB02KT //// // ////// 15/12 Q1019 RE//
15°C / 11°C variable 1kt - 1019 - LGIO 170750Z AUTO VRB01KT //// // ////// 15/11 Q1019 RE//
14°C / 11°C variable 1kt - 1018 - LGIO 170720Z AUTO VRB01KT //// // ////// 14/11 Q1018 RE//
13°C / 12°C variable 2kt - 1018 - LGIO 170650Z AUTO VRB02KT //// // ////// 13/12 Q1018 RE//
13°C / 12°C variable 0kt - 1018 - LGIO 170620Z AUTO 00000KT //// // ////// 13/12 Q1018 RE//
12°C / 12°C variable 1kt - 1018 - LGIO 170550Z AUTO VRB01KT //// // ////// 12/12 Q1018 RE//
12°C / 12°C variable 0kt - 1017 - LGIO 170520Z AUTO 00000KT //// // ////// 12/12 Q1017 RE//
12°C / 11°C variable 0kt - 1017 - LGIO 170450Z AUTO 00000KT //// // ////// 12/11 Q1017 RE//
12°C / 11°C variable 1kt - 1017 - LGIO 170420Z AUTO VRB01KT //// // ////// 12/11 Q1017 RE//
12°C / 12°C variable 1kt - 1017 - LGIO 170350Z AUTO VRB01KT //// // ////// 12/12 Q1017 RE//
12°C / 12°C variable 1kt - 1017 - LGIO 170320Z AUTO VRB01KT //// // ////// 12/12 Q1017 RERA
12°C / 11°C variable 1kt Light Rain 1.00mm precipitation Vertical Visibility of 0ft. 1017 - LGIO 170250Z AUTO VRB01KT //// -RA ////// 12/11 Q1017 RE//
12°C / 12°C variable 1kt Light Rain 1.00mm precipitation Vertical Visibility of 0ft. 1017 - LGIO 170220Z AUTO VRB01KT //// -RA ////// 12/12 Q1017 RE//
12°C / 12°C variable 1kt - 1017 - LGIO 170150Z AUTO VRB01KT //// // ////// 12/12 Q1017 RE//
12°C / 12°C variable 2kt - 1017 - LGIO 170120Z AUTO VRB02KT //// // ////// 12/12 Q1017 RE//
12°C / 12°C variable 2kt - 1017 - LGIO 170050Z AUTO VRB02KT //// // ////// 12/12 Q1017 RE//

VFR

17°C / 11°C

[Więcej]
Wiatr variable 3kt
Widzialność >10km
Pogoda -
Chmury Few Clouds 1500ft
Broken Clouds 3500ft
Broken Clouds 7000ft
Ciśn. atm. 1018
Zmień -
Surowy LGIO 171220Z VRB03KT 9999 FEW015 BKN035 BKN070 17/11 Q1018

17°C / 11°C

[Więcej]
Wiatr variable 2kt
Widzialność
Pogoda -
Chmury
Ciśn. atm. 1018
Zmień -
Surowy LGIO 171150Z AUTO VRB02KT //// // ////// 17/11 Q1018 RE//

17°C / 11°C

[Więcej]
Wiatr variable 2kt
Widzialność
Pogoda -
Chmury
Ciśn. atm. 1018
Zmień -
Surowy LGIO 171120Z AUTO VRB02KT //// // ////// 17/11 Q1018 RE//

17°C / 11°C

[Więcej]
Wiatr variable 2kt
Widzialność
Pogoda -
Chmury
Ciśn. atm. 1018
Zmień -
Surowy LGIO 171050Z AUTO VRB02KT //// // ////// 17/11 Q1018 RE//

17°C / 11°C

[Więcej]
Wiatr variable 0kt
Widzialność
Pogoda -
Chmury
Ciśn. atm. 1019
Zmień -
Surowy LGIO 171020Z AUTO 00000KT //// // ////// 17/11 Q1019 RE//

16°C / 11°C

[Więcej]
Wiatr variable 2kt
Widzialność
Pogoda -
Chmury
Ciśn. atm. 1019
Zmień -
Surowy LGIO 170950Z AUTO VRB02KT //// // ////// 16/11 Q1019 RE//

16°C / 11°C

[Więcej]
Wiatr variable 2kt
Widzialność
Pogoda -
Chmury
Ciśn. atm. 1019
Zmień -
Surowy LGIO 170920Z AUTO VRB02KT //// // ////// 16/11 Q1019 RE//

16°C / 12°C

[Więcej]
Wiatr variable 1kt
Widzialność
Pogoda -
Chmury
Ciśn. atm. 1019
Zmień -
Surowy LGIO 170850Z AUTO VRB01KT //// // ////// 16/12 Q1019 RE//

15°C / 12°C

[Więcej]
Wiatr variable 2kt
Widzialność
Pogoda -
Chmury
Ciśn. atm. 1019
Zmień -
Surowy LGIO 170820Z AUTO VRB02KT //// // ////// 15/12 Q1019 RE//

15°C / 11°C

[Więcej]
Wiatr variable 1kt
Widzialność
Pogoda -
Chmury
Ciśn. atm. 1019
Zmień -
Surowy LGIO 170750Z AUTO VRB01KT //// // ////// 15/11 Q1019 RE//

14°C / 11°C

[Więcej]
Wiatr variable 1kt
Widzialność
Pogoda -
Chmury
Ciśn. atm. 1018
Zmień -
Surowy LGIO 170720Z AUTO VRB01KT //// // ////// 14/11 Q1018 RE//

13°C / 12°C

[Więcej]
Wiatr variable 2kt
Widzialność
Pogoda -
Chmury
Ciśn. atm. 1018
Zmień -
Surowy LGIO 170650Z AUTO VRB02KT //// // ////// 13/12 Q1018 RE//

13°C / 12°C

[Więcej]
Wiatr variable 0kt
Widzialność
Pogoda -
Chmury
Ciśn. atm. 1018
Zmień -
Surowy LGIO 170620Z AUTO 00000KT //// // ////// 13/12 Q1018 RE//

12°C / 12°C

[Więcej]
Wiatr variable 1kt
Widzialność
Pogoda -
Chmury
Ciśn. atm. 1018
Zmień -
Surowy LGIO 170550Z AUTO VRB01KT //// // ////// 12/12 Q1018 RE//

12°C / 12°C

[Więcej]
Wiatr variable 0kt
Widzialność
Pogoda -
Chmury
Ciśn. atm. 1017
Zmień -
Surowy LGIO 170520Z AUTO 00000KT //// // ////// 12/12 Q1017 RE//

12°C / 11°C

[Więcej]
Wiatr variable 0kt
Widzialność
Pogoda -
Chmury
Ciśn. atm. 1017
Zmień -
Surowy LGIO 170450Z AUTO 00000KT //// // ////// 12/11 Q1017 RE//

12°C / 11°C

[Więcej]
Wiatr variable 1kt
Widzialność
Pogoda -
Chmury
Ciśn. atm. 1017
Zmień -
Surowy LGIO 170420Z AUTO VRB01KT //// // ////// 12/11 Q1017 RE//

12°C / 12°C

[Więcej]
Wiatr variable 1kt
Widzialność
Pogoda -
Chmury
Ciśn. atm. 1017
Zmień -
Surowy LGIO 170350Z AUTO VRB01KT //// // ////// 12/12 Q1017 RE//

12°C / 12°C

[Więcej]
Wiatr variable 1kt
Widzialność
Pogoda -
Chmury
Ciśn. atm. 1017
Zmień -
Surowy LGIO 170320Z AUTO VRB01KT //// // ////// 12/12 Q1017 RERA

12°C / 11°C

[Więcej]
Wiatr variable 1kt
Widzialność
Pogoda Light Rain 1.00mm precipitation
Chmury Vertical Visibility of 0ft.
Ciśn. atm. 1017
Zmień -
Surowy LGIO 170250Z AUTO VRB01KT //// -RA ////// 12/11 Q1017 RE//

12°C / 12°C

[Więcej]
Wiatr variable 1kt
Widzialność
Pogoda Light Rain 1.00mm precipitation
Chmury Vertical Visibility of 0ft.
Ciśn. atm. 1017
Zmień -
Surowy LGIO 170220Z AUTO VRB01KT //// -RA ////// 12/12 Q1017 RE//

12°C / 12°C

[Więcej]
Wiatr variable 1kt
Widzialność
Pogoda -
Chmury
Ciśn. atm. 1017
Zmień -
Surowy LGIO 170150Z AUTO VRB01KT //// // ////// 12/12 Q1017 RE//

12°C / 12°C

[Więcej]
Wiatr variable 2kt
Widzialność
Pogoda -
Chmury
Ciśn. atm. 1017
Zmień -
Surowy LGIO 170120Z AUTO VRB02KT //// // ////// 12/12 Q1017 RE//

12°C / 12°C

[Więcej]
Wiatr variable 2kt
Widzialność
Pogoda -
Chmury
Ciśn. atm. 1017
Zmień -
Surowy LGIO 170050Z AUTO VRB02KT //// // ////// 12/12 Q1017 RE//

TAF dla Janina (LGIO)

From till


From till Wind variable 3kt. Visibility 8000m. Scattered Clouds 800ft. Broken Clouds 2500ft. Broken Clouds 8000ft.
With 40% probability, Temporarly from till Visibility 5000m. Rain .

Surowy: TAF LGIO 171100Z 1712/1721 VRB03KT 8000 SCT008 BKN025 BKN080 PROB40 TEMPO 1712/1720 5000 RA

Aktualne zdjęcia satelitarne i zdjęcia opadów deszczu dla Janina, Grecja

Wskaźnik lokalizacji znajduje się na Janina. [Więcej]

Obraz satelitarny w czasie rzeczywistym łączy światło widzialne w ciągu dnia z promieniowaniem podczerwonym w nocy. W nocy obraz nie jest ciemny, ponieważ promieniowanie podczerwone może wykrywać różnice temperatur. Niestety niskie chmury i mgłę trudno odróżnić od temperatury gruntu, przez co mogą być prawie niewidoczne w nocy. Zdjęcia satelitarne Meteosat dla Europy są aktualizowane w czasie rzeczywistym co 5 minut. Obrazy GOES-16/GOES-17 (Ameryka Północna i Południowa) oraz Himawari (Azja) są aktualizowane co 10 minut.

Opady zostały oszacowane na podstawie danych radarowych i satelitarnych. Szacunkowe dane opadów nocnych są mniej dokładne niż dane w ciągu dnia. Pomarańczowe krzyżyki oznaczają miejsca, gdzie zaobserwowano pioruny (nad Europa).

Prawa autorskie 2021 EUMETSAT / meteoblue. Dane dot. błyskawic dostarczone przez nowcast.

Radar i prognoza opadów na teraz dla Janina

Mżawka
Lekki
Umiarkowane
Ulewne
Bardzo ciężkie
Grad

Wskaźnik lokalizacji jest umieszczony na Janina. Animacja przedstawia radar opadów dla ostatniej godziny, jak również 1h prognozę pogody. Mżawka lub lekki opad śniegu może być niewidoczny dla radaru. Intensywność opadów jest oznaczona kolorami, od jasnoniebieskiego do pomarańczowego.